Wetbulb
70.16 72.56 74.11 73.67 73.57 73.51 73.15 72.88 72.68 72.40 71.77 71.33 70.95 70.90 70.60 70.45 70.46 70.57 70.95 71.62 72.22 71.98 70.16 70.08 70.88 70.96 72.00 74.01 75.05 74.44 74.20 74.09 74.40 74.71 75.01 74.66 74.65 74.89 75.02 74.72 74.23 73.29 74.10
71.36 72.24 73.99 73.87 73.51 73.27 72.98 72.83 72.48 71.80 71.40 71.13 71.21 71.54 71.85 71.77 71.58 71.53 72.34 72.69 72.88 71.73 70.59 70.35 70.92 71.21 71.21 72.49 74.12 73.85 73.93 73.75 74.30 73.72 74.18 74.44 74.01 73.18 74.09 74.34 74.10 73.32 73.88
71.21 71.35 72.33 73.87 73.57 73.08 72.89 72.24 71.89 71.41 71.02 71.42 72.01 72.20 71.92 71.79 71.81 72.63 73.54 74.61 74.52 74.25 73.89 73.58 73.66 73.23 72.87 71.55 73.00 73.45 73.09 72.87 73.46 72.95 72.87 71.98 72.84 73.08 73.63 74.15 74.27 73.94 73.96
71.11 70.58 71.82 73.79 73.28 72.86 72.59 71.94 71.52 71.05 71.07 71.68 71.50 71.34 71.63 71.93 72.35 73.59 74.15 74.21 73.83 73.57 73.33 73.18 72.96 73.01 72.89 72.02 71.79 72.45 72.51 71.97 72.92 72.28 70.51 71.49 72.94 73.73 73.53 73.54 73.83 73.52 73.59
70.09 70.96 72.16 73.73 73.08 72.68 72.25 71.52 71.32 70.91 71.15 71.11 70.91 71.08 71.42 72.25 72.61 73.47 73.52 73.76 72.91 72.56 72.21 71.81 71.19 70.78 71.67 71.80 71.67 72.43 72.66 73.09 72.75 70.38 70.17 70.65 72.52 73.46 73.42 73.14 73.39 73.57 73.47
69.83 70.10 73.52 73.31 72.66 72.32 71.77 71.17 71.02 70.78 71.07 70.78 70.66 70.85 71.68 72.97 72.92 73.36 73.15 73.06 72.40 72.01 71.24 69.92 69.45 69.94 70.64 69.70 70.49 72.61 72.52 71.85 71.26 70.69 71.91 72.24 72.65 73.05 72.56 73.12 73.20 73.07 73.07
68.61 70.13 71.61 73.39 72.57 72.29 71.74 71.14 70.79 70.58 70.73 70.45 70.25 70.69 71.51 73.02 73.22 72.84 72.70 72.35 71.93 71.25 70.34 69.67 70.81 71.49 71.70 72.19 71.94 72.54 72.59 71.79 69.40 70.04 70.73 70.91 71.64 72.28 72.30 72.20 72.40 72.92 72.80
69.40 70.12 71.13 73.07 72.45 72.30 71.72 71.02 70.63 70.47 70.48 70.28 70.11 70.12 71.12 72.85 73.00 72.47 72.39 71.97 71.58 70.88 70.28 70.36 72.76 72.78 73.27 73.27 73.40 72.65 72.10 71.40 69.91 69.93 70.20 70.49 71.17 70.86 70.95 71.29 71.58 72.13 72.68
71.45 69.53 69.68 70.08 70.84 72.10 71.38 70.83 70.43 70.08 70.25 70.17 69.99 69.81 70.93 72.04 72.87 72.33 72.03 71.57 71.06 70.74 70.70 71.05 71.59 72.28 72.55 72.40 72.08 71.91 71.17 71.13 68.23 69.13 69.65 70.40 70.92 70.65 71.06 70.94 71.41 71.54 71.95
69.97 68.92 67.86 68.36 68.50 68.44 68.57 70.68 70.28 69.85 70.05 69.98 69.46 69.47 70.39 70.95 71.88 72.03 71.36 71.96 70.71 70.39 71.05 71.69 71.82 70.83 71.96 71.44 71.29 71.02 70.77 69.73 67.55 68.59 70.16 70.59 71.44 71.29 71.59 70.94 70.16 70.36 70.92
68.81 68.67 67.14 67.08 66.54 66.94 67.50 68.59 69.67 69.80 69.78 69.81 69.44 69.06 68.26 65.03 66.09 66.93 69.87 71.46 70.51 70.29 71.26 71.22 69.48 71.30 71.52 70.91 70.63 70.33 68.57 66.72 66.71 66.88 67.61 70.03 70.73 70.98 70.81 70.45 70.45 70.41 70.28
66.71 67.90 66.80 66.15 65.90 65.97 68.74 66.96 66.00 66.05 65.51 66.23 66.70 66.23 65.42 64.23 64.56 67.03 67.95 70.89 70.82 70.46 69.80 68.60 66.93 65.46 69.45 69.16 69.71 68.39 66.32 65.96 66.08 66.32 67.48 68.73 68.46 68.36 69.21 70.23 70.26 70.33 70.48
67.08 67.88 68.02 65.90 65.66 65.27 66.32 65.73 65.15 64.23 64.30 64.69 65.03 64.63 64.62 64.33 64.16 65.82 65.29 67.43 68.15 68.33 66.13 64.84 62.96 62.65 66.37 66.96 66.26 66.15 65.81 65.54 65.80 66.19 67.37 67.62 67.43 67.11 66.81 67.35 69.67 69.60 69.26
66.96 67.89 68.07 66.71 65.07 64.51 64.46 65.19 64.32 63.54 63.62 62.78 63.36 63.68 62.70 63.11 65.10 64.75 65.20 65.35 66.54 67.25 66.69 66.22 61.95 63.80 65.52 65.64 65.60 65.44 64.93 65.16 64.67 64.37 65.43 66.39 65.79 65.84 64.98 65.57 65.62 68.29 68.58
66.41 67.84 68.04 67.32 65.48 64.64 63.27 64.67 63.93 63.06 63.62 62.62 63.13 63.98 63.18 64.72 66.16 65.34 65.06 63.79 64.95 66.83 66.77 65.80 62.23 63.63 64.86 65.11 64.62 64.27 64.06 63.90 63.50 63.45 63.47 65.14 64.65 64.19 64.26 64.45 64.29 64.90 66.23
66.17 67.25 67.59 67.03 66.23 64.08 62.47 62.95 63.33 62.85 63.05 63.39 64.16 65.31 66.28 66.06 67.99 66.46 64.97 64.34 64.71 65.69 66.63 64.15 63.01 62.35 63.85 64.28 63.34 63.57 63.38 62.77 62.39 62.00 62.50 63.34 64.00 63.85 64.01 64.12 64.34 64.19 64.11
65.36 67.29 66.56 66.62 65.96 63.46 62.39 62.26 62.02 62.74 63.46 63.50 64.26 65.82 67.14 67.74 67.87 68.06 66.74 65.66 65.41 66.45 66.55 62.13 62.08 61.93 61.35 61.91 62.64 62.33 61.94 61.74 61.49 61.27 61.80 62.28 63.43 64.33 63.75 63.62 63.71 64.01 64.07
64.31 66.05 66.24 67.96 65.78 63.70 61.93 61.80 61.44 62.56 63.72 64.18 64.81 66.22 67.43 68.91 68.35 66.77 67.14 65.88 65.92 65.63 65.68 62.28 59.65 59.87 59.75 60.46 61.09 60.76 60.27 60.41 60.54 60.77 61.29 61.66 62.19 62.46 63.95 64.05 63.80 63.72 63.98
63.58 65.19 64.79 66.15 64.66 63.66 62.41 62.30 62.19 63.18 63.53 64.13 65.19 66.64 67.51 68.76 69.56 67.51 66.74 65.27 65.17 63.59 63.49 62.64 60.89 60.16 59.60 59.62 59.96 60.16 59.79 59.30 59.66 60.31 60.71 60.96 61.12 62.21 61.85 63.82 64.10 63.93 63.73
62.69 64.48 65.09 65.02 64.72 63.19 64.43 64.56 65.78 66.32 65.60 65.55 65.97 67.24 67.77 68.34 69.90 67.98 65.50 64.33 65.16 63.92 62.96 62.19 62.04 60.70 60.42 60.40 60.54 60.84 59.24 59.05 59.02 59.34 60.28 60.56 60.70 60.75 60.83 61.30 63.27 63.72 64.32
63.22 63.33 64.21 64.94 65.12 65.12 66.05 65.38 65.73 65.75 66.52 67.10 67.30 67.63 67.77 68.42 68.79 66.88 65.28 63.77 64.45 63.79 63.81 62.67 61.78 61.30 60.35 60.26 59.00 57.93 58.53 58.17 58.15 58.38 59.47 59.81 59.92 60.14 60.32 60.40 61.24 62.24 63.20
62.85 63.31 64.08 65.36 65.47 66.21 67.46 66.97 67.59 66.81 67.01 67.48 67.35 68.01 68.33 67.90 68.12 66.83 64.74 62.83 62.74 63.42 63.29 62.94 62.50 61.04 60.17 59.79 58.82 56.16 55.73 57.00 57.44 57.81 58.27 58.64 59.41 59.91 59.80 60.02 60.46 61.06 61.91
62.55 63.38 64.24 64.90 65.56 66.56 67.03 67.71 67.52 67.62 67.26 67.41 67.71 67.01 67.65 68.07 67.37 66.13 64.39 63.64 63.27 63.56 63.48 63.35 62.79 61.29 60.78 59.71 59.75 58.91 54.68 53.46 54.27 57.61 57.37 58.13 59.30 58.55 59.76 60.16 60.01 60.63 61.29
63.03 64.42 64.41 65.30 64.96 65.83 66.70 67.05 67.46 66.61 65.99 66.67 67.08 67.17 67.14 67.69 66.89 66.08 65.15 64.06 63.99 63.54 62.88 63.05 62.81 61.50 60.05 59.80 59.29 59.50 59.10 57.35 56.12 55.25 56.46 57.54 58.21 58.17 59.15 59.54 60.06 60.44 61.05
63.30 64.24 64.84 65.58 65.56 66.07 66.45 66.81 67.10 66.14 66.49 66.54 66.74 66.83 66.58 66.85 67.05 66.51 65.87 65.38 64.37 63.34 63.36 63.44 63.13 62.35 60.78 60.50 59.75 60.00 59.36 58.54 57.49 56.46 55.84 56.57 57.11 58.34 59.19 59.40 59.71 59.98 60.39
64.47 64.72 65.51 65.65 65.89 66.50 66.56 66.18 66.09 66.05 66.05 65.73 65.82 66.04 66.74 66.76 66.55 66.68 66.72 65.84 64.74 64.10 63.93 63.85 63.34 62.77 62.67 61.72 61.50 60.62 60.16 59.45 57.62 55.86 54.39 55.01 55.85 57.81 59.11 59.62 59.52 59.75 60.25
MSLP
1015.33 1015.07 1015.37 1015.57 1015.75 1015.97 1016.09 1016.15 1016.25 1016.35 1016.37 1016.44 1016.54 1016.55 1016.67 1016.74 1016.71 1016.71 1016.60 1016.53 1016.43 1016.36 1016.35 1016.36 1016.36 1016.22 1016.21 1016.24 1016.21 1016.21 1016.28 1016.26 1016.25 1016.25 1016.31 1016.28 1016.29 1016.32 1016.35 1016.39 1016.49 1016.44 1016.52
1014.81 1015.18 1015.46 1015.72 1015.97 1016.16 1016.35 1016.40 1016.53 1016.65 1016.66 1016.76 1016.76 1016.73 1016.81 1016.80 1016.72 1016.65 1016.65 1016.61 1016.55 1016.51 1016.53 1016.46 1016.46 1016.40 1016.44 1016.51 1016.49 1016.50 1016.53 1016.50 1016.48 1016.61 1016.67 1016.67 1016.62 1016.60 1016.60 1016.65 1016.74 1016.83 1016.84
1015.16 1015.37 1015.69 1015.87 1016.10 1016.33 1016.47 1016.71 1016.80 1016.87 1016.97 1016.97 1017.04 1017.13 1017.13 1017.15 1017.04 1016.93 1016.83 1016.72 1016.65 1016.62 1016.60 1016.54 1016.48 1016.58 1016.61 1016.62 1016.72 1016.76 1016.80 1016.78 1016.74 1016.85 1016.90 1016.96 1016.76 1016.76 1016.82 1016.90 1016.91 1017.01 1017.09
1015.18 1015.61 1015.88 1015.98 1016.19 1016.44 1016.66 1016.82 1017.01 1017.10 1017.21 1017.22 1017.23 1017.30 1017.36 1017.39 1017.34 1017.29 1017.20 1017.11 1017.03 1017.00 1016.98 1016.91 1016.83 1016.74 1016.70 1016.76 1016.85 1016.89 1016.95 1016.94 1016.89 1017.16 1017.18 1017.15 1016.96 1017.08 1017.20 1017.24 1017.16 1017.27 1017.38
1015.47 1015.75 1015.87 1016.09 1016.32 1016.56 1016.86 1017.18 1017.39 1017.48 1017.52 1017.58 1017.65 1017.70 1017.68 1017.67 1017.69 1017.68 1017.65 1017.56 1017.47 1017.48 1017.44 1017.40 1017.25 1017.21 1017.07 1016.98 1016.94 1016.96 1017.01 1017.01 1017.14 1017.32 1017.35 1017.41 1017.42 1017.37 1017.38 1017.52 1017.51 1017.47 1017.57
1015.64 1015.87 1015.94 1016.36 1016.67 1016.87 1017.15 1017.31 1017.50 1017.68 1017.78 1017.87 1017.95 1017.97 1017.90 1017.86 1017.89 1017.96 1018.03 1017.99 1017.94 1017.86 1017.77 1017.65 1017.63 1017.47 1017.30 1017.17 1017.02 1017.07 1017.17 1017.24 1017.43 1017.56 1017.49 1017.45 1017.62 1017.51 1017.62 1017.66 1017.71 1017.76 1017.82
1015.86 1016.12 1016.28 1016.50 1016.75 1017.02 1017.28 1017.57 1017.78 1017.95 1018.08 1018.18 1018.24 1018.17 1018.13 1018.12 1018.11 1018.26 1018.31 1018.33 1018.30 1018.17 1018.10 1017.99 1017.82 1017.61 1017.31 1017.24 1017.21 1017.43 1017.55 1017.62 1017.76 1017.78 1017.79 1017.79 1017.80 1017.84 1017.90 1017.88 1017.84 1017.96 1017.97
1016.17 1016.34 1016.51 1016.67 1016.93 1017.17 1017.42 1017.65 1017.83 1018.03 1018.16 1018.21 1018.25 1018.23 1018.15 1018.08 1018.10 1018.28 1018.44 1018.54 1018.50 1018.50 1018.40 1018.30 1018.07 1017.97 1017.85 1017.79 1017.62 1017.74 1017.92 1017.92 1017.97 1018.05 1018.07 1018.05 1017.98 1018.03 1018.07 1018.14 1018.03 1018.10 1018.20
1016.31 1016.63 1016.82 1016.94 1017.13 1017.35 1017.61 1017.86 1018.06 1018.21 1018.30 1018.34 1018.42 1018.46 1018.47 1018.37 1018.30 1018.35 1018.50 1018.60 1018.63 1018.60 1018.61 1018.61 1018.49 1018.39 1018.34 1018.35 1018.30 1018.30 1018.33 1018.47 1018.54 1018.55 1018.27 1018.29 1018.19 1018.25 1018.36 1018.38 1018.39 1018.39 1018.42
1016.64 1017.02 1017.18 1017.27 1017.42 1017.65 1017.86 1018.00 1018.04 1018.13 1018.34 1018.49 1018.60 1018.59 1018.62 1018.70 1018.77 1018.74 1018.79 1018.79 1018.84 1018.86 1018.80 1018.77 1018.71 1018.70 1018.75 1018.65 1018.69 1018.73 1018.77 1018.88 1018.95 1018.82 1018.74 1018.61 1018.50 1018.59 1018.60 1018.69 1018.74 1018.70 1018.71
1017.06 1017.32 1017.32 1017.40 1017.61 1017.88 1018.05 1017.96 1017.95 1018.06 1018.21 1018.40 1018.60 1018.69 1018.75 1018.92 1018.97 1018.96 1018.84 1018.83 1018.91 1018.95 1018.79 1018.82 1018.73 1018.69 1018.76 1018.88 1018.97 1019.05 1019.20 1019.33 1019.31 1019.32 1019.29 1019.07 1018.93 1018.91 1018.91 1019.01 1019.06 1019.10 1019.21
1016.86 1017.23 1017.47 1017.46 1017.59 1017.83 1017.89 1017.94 1018.03 1018.18 1018.32 1018.50 1018.77 1018.89 1019.02 1019.07 1019.09 1018.93 1018.79 1018.74 1018.80 1018.93 1018.92 1018.95 1018.90 1018.83 1018.97 1019.12 1019.16 1019.37 1019.52 1019.57 1019.60 1019.62 1019.57 1019.45 1019.47 1019.39 1019.31 1019.39 1019.35 1019.42 1019.54
1016.50 1016.98 1017.29 1017.39 1017.54 1017.76 1017.81 1018.15 1018.43 1018.51 1018.61 1018.75 1018.82 1018.96 1019.09 1019.11 1019.17 1019.16 1019.15 1019.08 1018.87 1018.81 1018.97 1019.18 1019.25 1019.18 1019.29 1019.34 1019.40 1019.49 1019.68 1019.89 1020.00 1020.02 1019.85 1019.79 1019.74 1019.75 1019.73 1019.75 1019.72 1019.75 1019.95
1016.16 1016.46 1016.75 1017.03 1017.45 1017.69 1017.81 1018.01 1018.37 1018.55 1018.73 1018.77 1018.68 1018.84 1019.04 1019.13 1019.07 1019.16 1019.08 1019.28 1019.21 1018.97 1019.21 1019.23 1019.19 1019.34 1019.46 1019.61 1019.79 1019.92 1019.94 1020.05 1020.23 1020.28 1020.20 1020.11 1020.11 1020.10 1020.15 1020.03 1019.94 1020.07 1020.27
1015.76 1016.07 1016.25 1016.53 1016.96 1017.16 1017.44 1017.66 1017.96 1018.28 1018.33 1018.40 1018.55 1018.65 1018.74 1018.85 1018.80 1018.90 1019.07 1019.13 1019.09 1019.03 1019.27 1019.37 1019.39 1019.47 1019.50 1019.73 1019.88 1020.08 1020.44 1020.54 1020.55 1020.64 1020.55 1020.37 1020.45 1020.40 1020.44 1020.46 1020.41 1020.44 1020.49
1015.27 1015.55 1015.84 1016.29 1016.54 1016.95 1017.18 1017.28 1017.41 1017.69 1017.82 1018.22 1018.33 1018.40 1018.51 1018.62 1018.77 1018.79 1018.81 1018.85 1018.89 1019.00 1019.27 1019.38 1019.49 1019.66 1019.68 1019.66 1019.93 1020.08 1020.09 1020.32 1020.50 1020.63 1020.79 1020.69 1020.59 1020.65 1020.65 1020.57 1020.64 1020.72 1020.79
1014.31 1014.88 1015.34 1015.94 1016.38 1016.83 1017.04 1017.13 1017.35 1017.43 1017.65 1017.83 1017.89 1018.04 1018.14 1018.37 1018.47 1018.50 1018.73 1018.76 1018.69 1018.69 1018.95 1019.36 1019.64 1019.91 1020.19 1020.23 1020.15 1020.30 1020.39 1020.47 1020.58 1020.55 1020.56 1020.82 1020.78 1020.75 1020.90 1020.90 1020.78 1020.70 1020.92
1014.22 1014.57 1015.07 1015.52 1016.04 1016.51 1016.83 1016.94 1016.98 1017.40 1017.49 1017.49 1017.74 1017.89 1017.86 1018.04 1018.23 1018.54 1018.59 1018.61 1018.64 1018.87 1019.01 1019.29 1019.68 1020.15 1020.23 1020.33 1020.46 1020.50 1020.56 1020.62 1020.65 1020.65 1020.61 1020.73 1020.85 1020.84 1020.81 1020.94 1021.00 1021.10 1020.99
1013.40 1014.15 1014.71 1015.09 1015.51 1016.10 1016.55 1016.62 1016.77 1017.06 1017.23 1017.34 1017.49 1017.50 1017.62 1017.76 1017.84 1018.02 1018.44 1018.75 1018.70 1018.94 1019.23 1019.41 1019.91 1020.13 1020.48 1020.44 1020.44 1020.50 1020.48 1020.46 1020.64 1020.63 1020.85 1020.78 1020.83 1020.97 1021.06 1020.96 1020.93 1021.05 1021.19
1013.11 1013.67 1014.16 1014.69 1015.04 1015.53 1015.98 1016.26 1016.69 1017.05 1017.15 1017.11 1017.12 1017.33 1017.35 1017.56 1017.81 1018.23 1018.37 1018.44 1018.82 1019.04 1019.35 1019.47 1019.58 1019.76 1019.92 1020.12 1020.03 1019.98 1020.19 1020.40 1020.44 1020.59 1020.54 1020.73 1020.84 1020.91 1020.99 1021.00 1020.93 1021.06 1021.06
1013.02 1013.61 1013.80 1014.24 1014.62 1015.24 1015.84 1016.40 1016.85 1016.91 1016.81 1016.86 1016.82 1017.05 1017.40 1017.55 1017.76 1017.96 1018.30 1018.66 1018.85 1019.04 1019.28 1019.50 1019.78 1019.89 1019.91 1020.17 1020.37 1020.30 1020.04 1020.14 1020.28 1020.23 1020.29 1020.32 1020.40 1020.45 1020.73 1020.78 1020.78 1020.78 1020.92
1012.32 1012.81 1013.42 1013.86 1014.23 1014.50 1014.88 1015.51 1015.89 1016.12 1016.25 1016.45 1016.55 1016.79 1016.90 1017.10 1017.37 1017.78 1018.19 1018.68 1018.86 1019.16 1019.24 1019.49 1019.78 1019.94 1019.95 1020.08 1020.28 1020.51 1020.25 1020.03 1019.87 1019.83 1019.92 1019.89 1019.92 1020.07 1020.08 1020.34 1020.50 1020.48 1020.44
1012.19 1012.16 1012.63 1013.03 1013.90 1014.17 1014.76 1015.45 1015.99 1016.14 1016.23 1016.41 1016.46 1016.40 1016.44 1016.58 1016.95 1017.48 1017.93 1018.44 1018.71 1018.88 1019.20 1019.35 1019.58 1019.88 1019.90 1019.95 1020.03 1020.04 1020.20 1019.92 1019.82 1019.47 1019.63 1019.68 1019.61 1019.75 1019.67 1019.86 1020.01 1020.10 1020.21
1011.31 1011.87 1012.28 1012.95 1013.50 1013.97 1014.61 1015.25 1015.52 1015.36 1015.68 1015.64 1015.71 1015.92 1016.23 1016.44 1016.80 1017.25 1017.67 1017.97 1018.21 1018.47 1018.83 1019.11 1019.33 1019.52 1019.76 1019.87 1019.90 1019.66 1019.51 1019.68 1019.69 1019.25 1019.14 1019.17 1019.12 1019.12 1019.05 1019.03 1019.02 1019.29 1019.54
1010.89 1011.18 1011.79 1012.73 1013.29 1013.82 1014.16 1014.82 1015.33 1015.52 1015.42 1015.54 1015.99 1015.95 1016.01 1015.90 1016.18 1016.79 1017.33 1017.53 1017.82 1018.02 1018.45 1018.82 1019.00 1019.02 1019.18 1019.30 1019.38 1019.27 1019.38 1019.48 1019.55 1019.64 1018.52 1018.48 1018.64 1018.34 1018.22 1018.18 1018.04 1018.16 1018.27
1010.35 1010.86 1011.44 1012.34 1012.69 1013.22 1013.82 1014.54 1014.80 1015.07 1015.21 1015.68 1016.07 1016.14 1016.36 1016.18 1015.43 1016.14 1016.61 1017.17 1017.51 1017.72 1017.90 1017.95 1018.12 1018.60 1018.87 1019.03 1019.04 1019.00 1019.27 1019.23 1018.95 1019.10 1018.91 1018.24 1017.86 1017.43 1017.35 1017.30 1017.40 1017.38 1017.42
Wind_Speed
3 6 12 12 12 12 12 12 12 13 13 13 13 13 12 11 11 11 11 11 9 8 8 8 8 7 8 9 11 11 10 9 9 10 10 10 9 10 10 10 10 9 11
8 7 12 12 12 12 11 12 12 12 12 12 13 13 12 12 12 12 11 10 10 11 9 9 8 7 8 8 9 8 8 9 7 7 8 9 9 7 8 10 11 9 10
9 7 8 13 12 12 12 11 11 11 11 12 12 12 12 11 12 12 9 12 13 13 11 9 9 9 7 8 7 7 6 6 7 7 8 3 5 7 7 8 10 10 11
10 7 6 13 13 12 12 11 10 11 11 12 12 11 11 11 12 11 15 13 14 15 14 13 12 11 9 8 7 6 4 3 6 8 4 3 6 8 7 7 9 9 9
8 6 7 13 13 12 11 11 10 10 10 11 11 10 11 11 11 12 13 14 15 14 13 12 11 9 8 7 7 6 8 10 9 6 5 4 3 7 7 6 8 9 9
7 6 11 13 11 11 11 10 10 10 10 10 10 10 10 10 11 12 13 13 14 12 11 11 9 7 3 2 3 6 10 10 9 5 4 6 4 7 6 8 7 9 9
8 6 7 13 12 11 10 10 9 9 9 9 9 9 9 10 9 11 12 13 12 11 11 11 9 6 2 3 4 8 10 10 6 6 5 5 4 5 6 7 6 9 11
7 6 6 13 12 11 10 10 9 8 8 8 8 8 7 8 9 9 11 11 11 10 10 12 12 12 10 11 12 13 10 8 7 5 5 4 5 4 5 4 6 9 11
7 5 5 6 9 11 10 9 9 8 7 6 5 5 6 7 8 8 8 9 9 9 9 10 11 12 12 10 11 12 11 11 6 3 5 3 7 6 5 5 6 8 11
9 4 4 5 5 5 5 9 9 8 7 5 5 4 5 7 7 6 6 6 7 8 8 9 8 7 9 10 10 10 13 12 6 6 4 3 10 8 9 7 6 8 10
7 4 4 5 5 5 5 6 8 10 8 7 4 3 3 3 3 4 3 4 5 5 6 11 9 4 9 8 11 11 9 4 4 3 3 8 8 10 10 10 10 11 12
12 11 5 5 6 6 5 4 5 4 3 3 2 1 0 0 1 2 2 2 3 4 6 10 6 3 6 3 5 7 3 4 3 2 1 7 6 6 8 9 11 13 15
11 10 9 6 6 6 4 3 1 1 2 2 3 3 2 1 2 2 1 2 1 1 2 4 4 3 5 4 4 4 4 3 2 2 1 5 5 5 5 5 11 11 11
11 11 9 8 6 6 3 4 4 3 2 3 4 4 2 2 2 2 2 2 2 1 1 2 2 4 5 4 4 3 4 3 1 1 3 2 2 4 3 3 5 9 9
10 10 11 10 9 8 6 4 4 4 4 4 4 4 3 3 3 2 2 2 2 2 1 2 2 4 5 5 4 4 3 1 1 1 1 1 1 2 3 3 4 6 7
9 11 9 10 9 7 7 6 6 4 5 4 4 4 5 3 2 3 3 3 2 3 2 2 3 3 4 6 5 5 5 4 3 2 1 2 3 3 4 6 6 5 5
11 11 11 10 7 8 8 6 4 5 4 4 4 5 6 4 5 3 2 3 3 2 5 3 3 2 2 2 4 4 4 4 4 4 3 2 2 5 4 4 5 7 8
8 11 10 10 10 9 7 5 4 4 4 4 4 4 6 5 5 4 3 3 1 1 2 4 3 1 2 3 2 4 3 3 4 5 3 3 3 2 5 7 7 7 9
12 11 10 10 11 10 7 6 5 6 4 4 4 4 5 6 6 5 3 1 3 3 1 2 2 2 2 3 4 4 5 5 5 4 5 5 4 4 3 7 9 10 10
9 10 9 8 9 9 6 3 2 2 3 4 4 4 6 4 3 2 3 4 3 2 2 2 2 2 2 3 4 5 4 4 5 5 6 5 6 6 5 6 5 6 12
7 9 11 12 9 8 4 3 2 3 3 3 3 4 4 4 3 4 2 2 2 3 3 3 2 3 2 2 1 2 3 4 6 6 6 6 8 8 8 7 5 5 6
11 11 10 11 10 9 6 3 3 3 2 2 3 4 5 6 5 4 4 3 3 2 2 2 2 1 1 3 2 0 2 2 4 8 7 8 11 8 9 10 9 9 8
11 14 13 12 10 9 7 5 3 2 3 2 2 3 4 5 5 4 5 3 3 2 2 3 3 4 2 2 5 2 1 4 1 0 7 8 9 8 8 9 11 11 10
15 9 9 9 10 6 7 5 6 5 4 4 4 3 3 4 5 5 4 5 4 2 4 3 2 3 3 3 1 5 3 2 3 4 2 5 8 10 11 9 11 12 12
11 12 11 9 8 7 10 8 6 2 3 2 2 5 5 5 6 6 4 3 4 3 3 4 4 4 3 3 4 2 3 3 4 6 7 4 4 8 9 11 11 11 14
7 9 9 12 12 10 9 7 8 7 5 3 2 1 2 3 5 4 4 3 4 4 5 5 4 4 4 4 3 4 4 4 2 4 7 5 7 4 8 9 10 11 12
Wind_Direction
154 141 140 136 122 113 110 104 100 97 93 92 94 92 91 87 82 78 76 78 77 80 79 80 83 83 90 86 90 96 95 88 83 86 87 88 80 85 96 105 103 106 107
131 134 141 133 125 118 112 102 96 93 92 92 89 89 88 85 82 81 81 83 83 82 91 92 93 93 90 91 89 96 92 90 90 89 89 85 80 79 94 97 106 111 114
124 125 139 135 126 121 112 105 101 95 90 89 86 82 79 75 75 78 73 70 82 78 88 90 91 89 90 108 103 100 95 95 99 89 73 83 98 93 92 106 113 115 118
124 122 141 136 130 127 121 115 108 101 99 96 90 82 75 71 73 69 71 73 74 71 70 68 71 79 100 120 123 122 87 109 124 83 50 51 86 81 92 108 114 113 118
118 133 155 144 142 133 124 110 104 100 98 91 85 78 74 73 76 71 75 74 73 72 69 66 66 71 89 120 145 131 85 96 110 103 84 66 59 92 94 100 115 122 117
133 147 144 144 135 127 120 119 112 105 100 92 85 79 77 78 85 80 79 78 78 74 66 58 49 50 59 145 172 136 105 106 93 84 66 77 92 116 112 121 118 122 123
138 141 136 144 142 136 129 116 110 106 103 94 84 77 75 76 76 77 79 80 78 72 59 48 40 31 15 141 192 144 114 106 100 94 83 72 59 58 63 88 127 126 128
132 129 148 149 147 143 133 128 124 121 117 106 92 85 90 90 85 76 78 84 80 69 60 54 49 55 64 69 87 109 107 95 83 74 78 83 75 83 96 101 124 132 128
139 131 142 140 152 149 141 135 133 130 128 117 108 84 81 80 73 68 69 82 83 72 62 55 63 62 66 74 83 89 87 76 64 66 83 64 72 97 93 114 120 126 128
162 141 147 142 132 135 141 145 147 150 151 144 126 106 81 65 58 43 47 62 72 70 58 50 48 83 88 84 84 80 84 72 63 70 63 73 83 85 86 78 110 126 126
173 169 161 151 152 149 152 170 165 164 169 170 158 154 80 73 23 16 357 28 45 64 63 60 56 88 123 111 91 93 86 74 74 64 44 71 91 85 85 88 96 97 103
184 189 183 173 175 162 177 186 172 181 160 168 165 211 112 40 283 292 295 347 355 47 51 74 74 36 106 85 102 98 94 103 86 76 71 86 80 83 88 97 103 107 109
179 188 186 189 181 174 179 171 154 163 176 188 205 203 234 280 289 296 316 317 301 48 61 57 34 51 121 132 134 140 130 97 54 10 25 105 107 103 96 85 113 120 122
179 191 184 189 175 187 174 175 175 182 185 217 215 198 195 244 261 255 216 231 277 314 68 69 70 109 122 128 137 108 131 132 115 7 323 108 106 105 107 134 130 115 125
184 191 192 181 183 190 186 181 179 193 192 211 214 211 198 228 247 228 262 214 228 265 162 118 105 133 143 149 147 140 164 168 145 345 342 210 217 150 139 165 163 165 155
187 195 184 190 191 180 195 191 193 191 192 200 211 219 220 215 244 199 232 236 242 223 154 154 146 157 180 167 167 173 174 185 195 188 274 300 202 196 182 169 170 166 169
196 188 185 181 181 189 199 199 196 211 186 208 217 210 220 209 208 195 204 234 244 192 154 122 97 99 168 238 189 193 194 186 199 202 196 240 249 203 207 188 179 169 170
187 189 178 184 181 193 196 197 197 201 212 219 217 213 222 198 195 189 209 226 304 77 151 139 129 123 200 211 227 220 217 214 219 223 200 208 237 227 215 205 196 195 183
189 179 180 184 178 191 192 205 191 206 216 224 228 217 209 203 196 188 185 224 177 134 131 130 130 141 193 207 230 229 229 221 219 219 230 223 222 238 239 237 207 202 203
184 182 184 181 171 176 185 184 118 197 234 213 214 216 206 213 205 135 160 170 164 140 163 175 178 186 171 207 214 226 231 235 217 222 221 222 225 230 231 231 230 219 211
159 163 180 175 177 166 160 143 144 196 197 219 195 200 201 193 213 168 188 187 172 184 200 194 170 206 241 177 125 281 272 231 225 227 219 223 225 219 222 225 224 213 223
181 183 182 183 171 181 175 140 161 169 187 149 184 187 198 201 190 192 186 201 190 225 211 197 207 195 224 194 183 33 298 288 240 229 218 220 228 223 221 223 225 221 215
181 190 190 183 172 184 145 122 96 90 92 145 207 199 213 198 183 183 187 180 202 192 240 219 218 207 249 213 218 176 246 244 322 71 231 227 229 221 228 227 228 228 225
207 191 182 172 179 178 151 160 187 187 167 193 189 182 195 185 180 180 178 194 214 196 222 233 208 212 184 248 257 230 241 175 237 296 223 241 228 221 223 222 222 223 222
186 190 191 163 159 190 183 190 200 170 163 190 145 204 189 180 169 173 201 204 218 204 224 235 239 218 195 221 208 255 250 235 228 238 283 236 233 233 232 228 225 222 218
158 173 164 174 192 191 180 161 189 191 195 171 195 191 234 231 161 158 185 214 227 237 219 217 234 264 295 271 268 225 242 247 223 213 243 258 252 225 224 228 225 227 229